Voltar ao catálogo

STARLINK-36533

AtivoComunicaçõesVLEO
NORAD 67643·PAYLOAD·🇺🇸 United States

Lançado Jan 30, 2026 de Cape Canaveral Space Force Station

Loading…

Próximas Passagens (próximas 24 horas)

TLE

AtualizadoSource: CelesTrak SupGP

Época: Sep 14, 2026, 21:10 UTC

1 67643C 26020AC  26257.88243056 -.00045427  00000+0 -16453-2 0  2575
2 67643  43.0009 151.1682 0001344 266.7832 321.3115 15.27601630    12

Acompanhe STARLINK-36533 em tempo real com AllMySat

Download on the App Store